Havre, MT

6:04 AM MDT on October 01, 2016 (GMT -0600)
Havre City-County

Weather History for KHVR - July, 2013

Change the Weather History Date:

Monday, July 15, 2013

  Actual Average Record
Temperature  
Mean Temperature 71 °F 69 °F  
Max Temperature 89 °F 85 °F 104 °F (1936)
Min Temperature 53 °F 54 °F 35 °F (1881)
Degree Days  
Heating Degree Days 0 1  
Month to date heating degree days 3 22  
Since 1 June heating degree days 116 155  
Since 1 July heating degree days 3 22  
Cooling Degree Days 6 5  
Month to date cooling degree days 75 61  
Year to date cooling degree days 125 120  
Since 1 June cooling degree days 118 109  
Growing Degree Days 21 (Base 50)    
Moisture  
Dew Point 50 °F    
Average Humidity 57    
Maximum Humidity 93    
Minimum Humidity 21    
Precipitation  
Precipitation 0.00 in 0.06 in 0.98 in (2012)
Month to date precipitation 1.29 0.96  
Year to date precipitation 12.50 6.88  
Snow  
Snow 0.00 in 0.00 in 0.00 in (1999)
Month to date snowfall 0.0 0.0  
Since 1 June snowfall 0.0 0.0  
Since 1 July snowfall 0.0 0.0  
Snow Depth 0.00 in    
Sea Level Pressure  
Sea Level Pressure 29.91 in    
Wind  
Wind Speed 9 mph (NNW)    
Max Wind Speed 26 mph    
Max Gust Speed 32 mph    
Visibility 10 miles    
Events      
T = Trace of Precipitation, MM = Missing Value Source: NWS Daily Summary

Daily Weather History Graph

Daily Weather History Graph

Search for Another Location

Airport or City:

Trip Planner

Search our weather history database for the weather conditions in past years. The results will help you decide how hot, cold, wet, or windy it might be!

Date:

Astronomy

Jul. 15, 2013 Rise Set
Actual Time 5:33 AM MDT 9:16 PM MDT
Civil Twilight 4:53 AM MDT 9:55 PM MDT
Nautical Twilight 3:59 AM MDT 10:49 PM MDT
Astronomical Twilight 2:40 AM MDT 12:07 AM MDT
Moon 1:38 PM MDT (7/15) No Moon Set
Length of Visible Light 17h 02m
Length of Day
15h 42m
Waxing Crescent, 46% of the Moon is Illuminated
Jul 15
Waxing Crescent
Jul 15
First Quarter
Jul 22
Full
Jul 29
Last Quarter
Aug 6
New

Hourly Weather History & Observations

Time (MDT) Temp. Dew Point Humidity Pressure Visibility Wind Dir Wind Speed Gust Speed Precip Events Conditions
12:53 AM 64.9 °F 52.0 °F 63% 29.94 in 10.0 mi ENE 10.4 mph 17.3 mph N/A   Clear
1:53 AM 60.1 °F 52.0 °F 75% 29.94 in 10.0 mi NE 11.5 mph - N/A   Clear
2:53 AM 59.0 °F 52.0 °F 78% 29.91 in 10.0 mi NE 13.8 mph - N/A   Clear
3:53 AM 57.9 °F 52.0 °F 81% 29.89 in 10.0 mi ENE 11.5 mph - N/A   Clear
4:53 AM 57.0 °F 52.0 °F 83% 29.88 in 10.0 mi ENE 9.2 mph - N/A   Clear
5:53 AM 53.1 °F 51.1 °F 93% 29.89 in 10.0 mi WSW 3.5 mph - N/A   Clear
6:53 AM 57.0 °F 54.0 °F 89% 29.88 in 10.0 mi East 3.5 mph - N/A   Clear
7:53 AM 61.0 °F 54.0 °F 78% 29.88 in 10.0 mi NW 5.8 mph - N/A   Clear
8:53 AM 66.0 °F 55.0 °F 68% 29.88 in 10.0 mi WNW 4.6 mph - N/A   Clear
9:53 AM 70.0 °F 55.9 °F 61% 29.88 in 10.0 mi SSW 5.8 mph - N/A   Clear
10:53 AM 78.1 °F 57.9 °F 50% 29.86 in 10.0 mi SW 4.6 mph - N/A   Clear
11:53 AM 84.0 °F 46.9 °F 27% 29.85 in 10.0 mi WNW 8.1 mph - N/A   Clear
12:53 PM 86.0 °F 45.0 °F 24% 29.83 in 10.0 mi Variable 3.5 mph - N/A   Clear
1:53 PM 87.1 °F 45.0 °F 23% 29.83 in 10.0 mi Calm Calm - N/A   Clear
2:53 PM 87.1 °F 46.0 °F 24% 29.82 in 10.0 mi North 8.1 mph - N/A   Clear
3:53 PM 88.0 °F 44.1 °F 22% 29.82 in 10.0 mi North 12.7 mph - N/A   Clear
4:53 PM 87.1 °F 43.0 °F 21% 29.83 in 10.0 mi NNW 13.8 mph - N/A   Clear
5:53 PM 81.0 °F 50.0 °F 34% 29.88 in 10.0 mi NNW 21.9 mph 27.6 mph N/A   Clear
6:53 PM 75.9 °F 51.1 °F 42% 29.90 in 10.0 mi NNW 23.0 mph 32.2 mph N/A   Clear
7:53 PM 73.9 °F 51.1 °F 45% 29.94 in 10.0 mi NNW 12.7 mph 24.2 mph N/A   Clear
8:53 PM 70.0 °F 48.0 °F 46% 29.98 in 10.0 mi North 15.0 mph - N/A   Clear
9:53 PM 66.0 °F 46.0 °F 48% 30.05 in 10.0 mi North 11.5 mph - N/A   Clear
10:53 PM 60.1 °F 46.9 °F 62% 30.09 in 10.0 mi NW 6.9 mph - N/A   Clear
11:53 PM 57.9 °F 46.0 °F 65% 30.12 in 10.0 mi NNW 6.9 mph - N/A   Clear